STARLINK-32460, 61914

Orbit data source: Space-Track

STARLINK-32460, 61914 is a payload satellite owned by SpaceX/Seattle (US) in LEO that was launched on Mon, 11 Nov 2024 UTC via an FALCON 9 launch vehicle from the Air Force Eastern Test Range (AFETR). Payload-class satellites include a variety of spacecraft equipped with specific instruments for various scientific and technological missions. These include communications satellites like Starlink; space stations such as the ISS; scientific satellites like the Hubble; Earth observation satellites from companies like Planet Labs, Umbra, and HawkEye 360; GPS; miniature CubeSats for education and research; and military/defense satellites.

Loading next visibility...
Identifier
61914, 2024-207C
Orbit
LEO
Country
Flag of USUS
Related business
Manufacturer
SpaceX/Seattle
Mission
Operational Commercial Communications
Bus & Motor
STARLINK V2M, Unknown motor
Mass
730 kg wet, ~700 kg dry
Launch date (UTC)
2024-11-11 (2 years ago)
Launch vehicle
FALCON 9
Launch site
Air Force Eastern Test Range (AFETR)
Object type
Payload
Rocket body
Debris
Shape & HBR
Box + 2 Pan, 17.7 m
Radar Cross Section
33.884 m², Large (>1 m²)

Expand to show TLE details & history
Last TLE update: 23 hours ago

TLE from 23 hours ago
0 STARLINK-32460
1 61914U 24207C   26206.43725639  .00013050  00000-0  48273-3 0  9997
2 61914  43.0034 223.4038 0001942 279.5179  80.5453 15.27591400 95794
Epoch: 2026-07-25T10:29Z
TLE epoch observation values (Epoch: 2026-07-25T10:29:38.952Z)
Latitude
-0.00001°
Longitude
122.84193°
Altitude
482.572 km
Speed
7.626 km/s
True Right ascension
14h 53m 36s
True Declination
0° 00' 00"
Sunlit
Object was in daylight at epoch
Visualization orbit readout
Latitude
Unknown
Longitude
Unknown
Altitude
Unknown
Speed
Unknown
Apparent Right ascension
Unknown
Apparent Declination
Unknown
Sunlit
N/A
Visualization observer readout
Local Sidereal Time
22:17:52
Azimuth
Unknown
Elevation
Unknown
Doppler factor
Unknown
Orbital elements
Apogee altitude
486.292 km
Perigee altitude
483.627 km
Semi-major axis
6,863.097 km
Eccentricity
0.00019
Inclination
43.0034°
RAAN
223.4038°
Arg. of periapsis
279.5179°
True anomaly
80.56725°
Mean anomaly
80.5453°
Eccentric anomaly
80.55628°
Mean motion
3.81736 °/min
Orbital period
94.31 mins
BSTAR
0.00048273
Loading maneuver chart data...
Computing Atmospheric mass density...
Loading historical data...
Loading historical data...
Loading historical data...
Loading historical data...
Loading historical data...
Loading historical data...
Loading historical data...

Documentation

Showing up to 5 results
|